TimeCDT,TemperatureF,Dew PointF,Humidity,Sea Level PressureIn,VisibilityMPH,Wind Direction,Wind SpeedMPH,Gust SpeedMPH,PrecipitationIn,Events,Conditions,WindDirDegrees,DateUTC
12:13 AM,41.0,35.6,81,29.97,10.0,West,3.5,-,N/A,,Clear,280,2013-10-07 05:13:00
12:32 AM,42.8,35.6,76,29.97,10.0,Calm,Calm,-,N/A,,Clear,0,2013-10-07 05:32:00
12:53 AM,41.0,35.6,81,29.97,10.0,Calm,Calm,-,N/A,,Clear,0,2013-10-07 05:53:00
1:13 AM,41.0,35.6,81,29.97,10.0,Calm,Calm,-,N/A,,Clear,0,2013-10-07 06:13:00
1:32 AM,41.0,35.6,81,29.97,10.0,Calm,Calm,-,N/A,,Clear,0,2013-10-07 06:32:00
1:53 AM,41.0,35.6,81,29.97,10.0,Calm,Calm,-,N/A,,Clear,0,2013-10-07 06:53:00
2:13 AM,41.0,35.6,81,29.96,10.0,Calm,Calm,-,N/A,,Clear,0,2013-10-07 07:13:00
2:33 AM,41.0,35.6,81,29.96,10.0,Calm,Calm,-,N/A,,Clear,0,2013-10-07 07:33:00
2:53 AM,41.0,35.6,81,29.96,10.0,West,3.5,-,N/A,,Clear,280,2013-10-07 07:53:00
3:13 AM,42.8,37.4,81,29.96,10.0,West,3.5,-,N/A,,Clear,270,2013-10-07 08:13:00
3:33 AM,42.8,35.6,76,29.95,10.0,Calm,Calm,-,N/A,,Clear,0,2013-10-07 08:33:00
3:52 AM,41.0,35.6,81,29.95,10.0,Calm,Calm,-,N/A,,Clear,0,2013-10-07 08:52:00
4:13 AM,42.8,35.6,76,29.95,10.0,West,3.5,-,N/A,,Clear,270,2013-10-07 09:13:00
4:33 AM,41.0,35.6,81,29.96,10.0,WSW,4.6,-,N/A,,Clear,250,2013-10-07 09:33:00
4:53 AM,41.0,35.6,81,29.96,10.0,Calm,Calm,-,N/A,,Clear,0,2013-10-07 09:53:00
5:13 AM,39.2,35.6,87,29.97,10.0,WSW,3.5,-,N/A,,Clear,250,2013-10-07 10:13:00
5:33 AM,37.4,33.8,87,29.96,10.0,SW,4.6,-,N/A,,Clear,220,2013-10-07 10:33:00
5:53 AM,35.6,33.8,93,29.96,10.0,SW,4.6,-,N/A,,Clear,230,2013-10-07 10:53:00
6:12 AM,33.8,32.0,93,29.96,10.0,SSW,4.6,-,N/A,,Clear,210,2013-10-07 11:12:00
6:33 AM,35.6,33.8,93,29.96,10.0,WSW,4.6,-,N/A,,Clear,240,2013-10-07 11:33:00
6:53 AM,33.8,32.0,93,29.97,10.0,Calm,Calm,-,N/A,,Clear,0,2013-10-07 11:53:00
7:13 AM,35.6,33.8,93,29.97,10.0,Calm,Calm,-,N/A,,Clear,0,2013-10-07 12:13:00
7:33 AM,33.8,32.0,93,29.98,10.0,South,3.5,-,N/A,,Clear,190,2013-10-07 12:33:00
7:52 AM,33.8,32.0,93,29.98,10.0,South,3.5,-,N/A,,Clear,190,2013-10-07 12:52:00
8:13 AM,35.6,33.8,93,29.99,10.0,Calm,Calm,-,N/A,,Clear,0,2013-10-07 13:13:00
8:33 AM,37.4,35.6,93,29.99,10.0,Calm,Calm,-,N/A,,Clear,0,2013-10-07 13:33:00
8:53 AM,42.8,39.2,87,29.99,10.0,Calm,Calm,-,N/A,,Clear,0,2013-10-07 13:53:00
9:13 AM,44.6,41.0,87,30.00,10.0,WSW,5.8,-,N/A,,Clear,250,2013-10-07 14:13:00
9:33 AM,48.2,41.0,76,30.01,10.0,Calm,Calm,-,N/A,,Clear,0,2013-10-07 14:33:00
9:53 AM,50.0,41.0,71,30.01,10.0,WNW,4.6,-,N/A,,Clear,300,2013-10-07 14:53:00
10:13 AM,51.8,41.0,67,30.01,10.0,NNW,3.5,-,N/A,,Clear,330,2013-10-07 15:13:00
10:33 AM,51.8,42.8,71,30.01,10.0,WNW,3.5,-,N/A,,Clear,300,2013-10-07 15:33:00
10:53 AM,53.6,42.8,67,30.01,10.0,Calm,Calm,-,N/A,,Clear,0,2013-10-07 15:53:00
11:13 AM,55.4,42.8,63,30.02,10.0,West,3.5,-,N/A,,Clear,260,2013-10-07 16:13:00
11:33 AM,59.0,42.8,55,30.01,10.0,West,3.5,-,N/A,,Clear,270,2013-10-07 16:33:00
11:53 AM,60.8,42.8,52,30.01,10.0,Calm,Calm,-,N/A,,Clear,0,2013-10-07 16:53:00
12:13 PM,62.6,42.8,48,30.01,10.0,Calm,Calm,-,N/A,,Clear,0,2013-10-07 17:13:00
12:33 PM,64.4,42.8,45,30.00,10.0,South,3.5,-,N/A,,Clear,190,2013-10-07 17:33:00
12:53 PM,68.0,42.8,40,30.00,10.0,Calm,Calm,-,N/A,,Clear,0,2013-10-07 17:53:00
1:13 PM,68.0,42.8,40,29.99,10.0,SW,5.8,-,N/A,,Clear,220,2013-10-07 18:13:00
1:33 PM,69.8,42.8,38,29.99,10.0,SW,8.1,-,N/A,,Clear,220,2013-10-07 18:33:00
1:53 PM,69.8,41.0,35,29.98,10.0,SSW,6.9,-,N/A,,Clear,210,2013-10-07 18:53:00
2:13 PM,69.8,41.0,35,29.97,10.0,WSW,4.6,-,N/A,,Clear,240,2013-10-07 19:13:00
2:33 PM,71.6,41.0,33,29.97,10.0,West,5.8,-,N/A,,Clear,260,2013-10-07 19:33:00
2:53 PM,71.6,41.0,33,29.97,10.0,SW,8.1,-,N/A,,Clear,230,2013-10-07 19:53:00
3:13 PM,73.4,41.0,31,29.97,10.0,Calm,Calm,-,N/A,,Clear,0,2013-10-07 20:13:00
3:33 PM,73.4,41.0,31,29.96,10.0,SW,4.6,-,N/A,,Clear,230,2013-10-07 20:33:00
3:53 PM,73.4,39.2,29,29.96,10.0,WSW,6.9,-,N/A,,Clear,250,2013-10-07 20:53:00
4:13 PM,73.4,39.2,29,29.95,10.0,SW,8.1,-,N/A,,Clear,230,2013-10-07 21:13:00
4:33 PM,73.4,37.4,27,29.95,10.0,SW,4.6,-,N/A,,Clear,220,2013-10-07 21:33:00
4:53 PM,73.4,37.4,27,29.94,10.0,Calm,Calm,-,N/A,,Clear,0,2013-10-07 21:53:00
5:13 PM,73.4,37.4,27,29.94,10.0,SW,5.8,-,N/A,,Clear,220,2013-10-07 22:13:00
5:33 PM,73.4,37.4,27,29.94,10.0,SSW,4.6,-,N/A,,Clear,210,2013-10-07 22:33:00
5:53 PM,71.6,37.4,29,29.94,10.0,SSW,3.5,-,N/A,,Clear,200,2013-10-07 22:53:00
6:13 PM,69.8,41.0,35,29.94,10.0,SW,4.6,-,N/A,,Clear,220,2013-10-07 23:13:00
6:33 PM,68.0,41.0,37,29.93,10.0,SSW,4.6,-,N/A,,Clear,200,2013-10-07 23:33:00
6:53 PM,64.4,41.0,42,29.93,10.0,SSW,5.8,-,N/A,,Clear,200,2013-10-07 23:53:00
7:13 PM,60.8,41.0,48,29.94,10.0,SSW,3.5,-,N/A,,Clear,200,2013-10-08 00:13:00
7:33 PM,59.0,42.8,55,29.94,10.0,South,3.5,-,N/A,,Clear,180,2013-10-08 00:33:00
7:53 PM,55.4,42.8,63,29.95,10.0,South,3.5,-,N/A,,Clear,180,2013-10-08 00:53:00
8:13 PM,55.4,42.8,63,29.95,10.0,South,3.5,-,N/A,,Clear,170,2013-10-08 01:13:00
8:33 PM,51.8,42.8,71,29.95,10.0,South,3.5,-,N/A,,Clear,170,2013-10-08 01:33:00
8:53 PM,51.8,42.8,71,29.95,10.0,Calm,Calm,-,N/A,,Clear,0,2013-10-08 01:53:00
9:13 PM,51.8,42.8,71,29.95,10.0,Calm,Calm,-,N/A,,Clear,0,2013-10-08 02:13:00
9:33 PM,50.0,41.0,71,29.95,10.0,Calm,Calm,-,N/A,,Clear,0,2013-10-08 02:33:00
9:53 PM,48.2,41.0,76,29.95,10.0,Calm,Calm,-,N/A,,Clear,0,2013-10-08 02:53:00
10:13 PM,46.4,41.0,81,29.94,10.0,Calm,Calm,-,N/A,,Clear,0,2013-10-08 03:13:00
10:33 PM,44.6,41.0,87,29.95,10.0,Calm,Calm,-,N/A,,Clear,0,2013-10-08 03:33:00
10:53 PM,46.4,41.0,81,29.94,10.0,Calm,Calm,-,N/A,,Clear,0,2013-10-08 03:53:00
11:13 PM,44.6,41.0,87,29.93,10.0,Calm,Calm,-,N/A,,Clear,0,2013-10-08 04:13:00
11:32 PM,44.6,39.2,81,29.93,10.0,Calm,Calm,-,N/A,,Clear,0,2013-10-08 04:32:00
11:53 PM,46.4,41.0,81,29.92,10.0,Calm,Calm,-,N/A,,Clear,0,2013-10-08 04:53:00